Location: Newark
(45.9456°N, 15.4064°E)
Time: 00:09:13
(UTC+00:00)

Vanguard 3 - Pass Details

Date: 26 January 2020
Orbit: 508 x 3263 km, 33.3° (Epoch: 26 February)

Event Time Altitude Azimuth Distance (km) Brightness Sun altitude
Rises 21:21:45 0° 275° (W) 7,018 12.3 -54.6°
Reaches altitude 10° 21:27:36 10° 267° (W) 5,713 11.7 -55.4°
Enters shadow 21:35:48 25° 244° (WSW) 4,006 10.6 -56.4°
Maximum altitude 21:40:31 30° 216° (SW) 3,357 - -57.0°
Drops below altitude 10° 21:49:13 10° 160° (SSE) 3,781 - -57.9°
Sets 21:52:13 0° 149° (SSE) 4,405 - -58.3°
